This is the latest recevied weather packets stored in our database for station/object N0QV. If no packets are shown the sender has not sent any weather packets the latest 10 day(s).
| Time | Temp. | Humidity | Pressure | Rain* | Wind** | Luminosity | Snow |
|---|---|---|---|---|---|---|---|
| 1778069340 | 1.11° C | 72% | 1016.9 hPa | 0 mm | - | 28 W/m² | - |
| 1778069038 | 0.56° C | 72% | 1017 hPa | 0 mm | - | 28 W/m² | - |
| 1778068735 | 0.56° C | 73% | 1016.6 hPa | 0 mm | - | 29 W/m² | - |
| 1778068433 | 0.56° C | 74% | 1016.4 hPa | 0 mm | - | 28 W/m² | - |
| 1778068131 | 0° C | 75% | 1016.3 hPa | 0 mm | - | 25 W/m² | - |
| 1778067828 | 0° C | 77% | 1016.2 hPa | 0 mm | - | 23 W/m² | - |
| 1778067527 | -0.56° C | 78% | 1016.3 hPa | 0 mm | - | 20 W/m² | - |
| 1778067224 | -1.11° C | 80% | 1016.2 hPa | 0 mm | - | 16 W/m² | - |
| 1778066920 | -1.11° C | 81% | 1016.2 hPa | 0 mm | - | 14 W/m² | - |
| 1778066618 | -1.11° C | 81% | 1016.3 hPa | 0 mm | - | 12 W/m² | - |
| 1778066315 | -1.67° C | 81% | 1016.1 hPa | 0 mm | - | 10 W/m² | - |
| 1778066013 | -1.67° C | 81% | 1016 hPa | 0 mm | - | 6 W/m² | - |
| 1778065711 | -1.67° C | 81% | 1016 hPa | 0 mm | - | 3 W/m² | - |
| 1778065407 | -1.67° C | 80% | 1015.7 hPa | 0 mm | - | 2 W/m² | - |
| 1778065105 | -1.67° C | 80% | 1015.6 hPa | 0 mm | - | 0 W/m² | - |
| 1778064800 | -1.67° C | 79% | 1015.7 hPa | 0 mm | - | 0 W/m² | - |
| 1778064498 | -1.67° C | 80% | 1015.7 hPa | 0 mm | - | 0 W/m² | - |
| 1778064196 | -1.67° C | 80% | 1015.8 hPa | 0 mm | - | 0 W/m² | - |
| 1778063893 | -1.67° C | 79% | 1015.8 hPa | 0 mm | - | 0 W/m² | - |
| 1778063591 | -1.11° C | 77% | 1015.9 hPa | 0 mm | - | 0 W/m² | - |
| 1778063288 | -1.11° C | 76% | 1016 hPa | 0 mm | - | 0 W/m² | - |
| 1778062986 | -1.11° C | 75% | 1016 hPa | 0 mm | - | 0 W/m² | - |
| 1778062683 | -0.56° C | 75% | 1016.1 hPa | 0 mm | - | 0 W/m² | - |
| 1778062379 | -0.56° C | 75% | 1016.1 hPa | 0 mm | - | 0 W/m² | - |
| 1778062077 | -0.56° C | 75% | 1015.9 hPa | 0 mm | - | 0 W/m² | - |
* Rain latest hour (hover to see other rain measurements)
** Current wind speed in m/s (hover to see current wind gust speed)